User: anonymous   Login
Location: Copeville
(33.0796°N, 96.4155°W)
Time: 23:11:43
(UTC+00:00)
Language:

JUGNU - Orbit

View from above orbital plane
View from above orbital plane
View from above satellite
View from above satellite

Ground track
Ground track

The orbit data is extracted from the following two-line orbital elements,

1 37839U 11058B   24151.40425977  .00000510  00000-0  12830-3 0  9999
2 37839  19.9590 169.8390 0019001 100.1778  33.2432 14.13213029653092
Epoch (UTC): 30 May 2024 09:42:08
Eccentricity: 0.0019001
inclination: 19.9590°
perigee height: 834 km
apogee height: 862 km
right ascension of ascending node: 169.8390°
argument of perigee: 100.1778°
revolutions per day: 14.13213029
mean anomaly at epoch: 33.2432°
orbit number at epoch: 65309

The dashed part of the orbit path shows where the satellite is in the earth's shadow,  

DLR